DAH2071 EDDF-DAAG

Flight info

Callsign DAH2071
Flight time 2h 14m
Altitude 35000
Route ANEKI3F ANEKI Y163 HERBI Y164 MOPAN DCT LUTIX DCT BENOT DCT NEMOS DCT INCUS DCT BALSI DCT RETNO DCT TUPOX DCT MTG DCT DIVKO DCT VATIR DCT PIVUS N852 GENIO N855 BUYAH DCT SARAN
Aircraft B738/M-SDE2E3FGHIRWXY/LB1

Departure

Time 2026-05-06 12:42
Airport Frankfurt Main Airport (EDDF)

Arrival

Time 2026-05-06 14:57
Airport Houari Boumediene Airport (DAAG)
Time Latitude Longitude Altitude Speed Heading
2026-05-06 12:02 50.02945 8.57753 355 ft 0 kts 38°
2026-05-06 12:28 50.02943 8.57750 361 ft 3 kts 37°
2026-05-06 12:28 50.02920 8.57733 361 ft 4 kts 19°
2026-05-06 12:28 50.02899 8.57720 360 ft 4 kts
2026-05-06 12:28 50.02884 8.57730 355 ft 4 kts 282°
2026-05-06 12:29 50.02881 8.57762 354 ft 4 kts 272°
2026-05-06 12:29 50.02882 8.57732 354 ft 4 kts 272°
2026-05-06 12:29 50.02883 8.57690 356 ft 4 kts 272°
2026-05-06 12:29 50.02884 8.57648 352 ft 4 kts 272°
2026-05-06 12:30 50.02884 8.57639 352 ft 1 kts 272°
2026-05-06 12:31 50.02884 8.57622 352 ft 6 kts 272°
2026-05-06 12:32 50.02906 8.57501 354 ft 15 kts 296°
2026-05-06 12:32 50.02948 8.57357 356 ft 14 kts 294°
2026-05-06 12:32 50.02989 8.57219 361 ft 14 kts 295°
2026-05-06 12:32 50.03028 8.57087 352 ft 13 kts 295°
2026-05-06 12:33 50.03067 8.56961 358 ft 13 kts 302°
2026-05-06 12:33 50.03144 8.56906 355 ft 13 kts 339°
2026-05-06 12:33 50.03237 8.56854 357 ft 16 kts 340°
2026-05-06 12:33 50.03255 8.56702 354 ft 17 kts 250°
2026-05-06 12:34 50.03214 8.56534 352 ft 16 kts 249°
2026-05-06 12:34 50.03177 8.56373 347 ft 16 kts 248°
2026-05-06 12:34 50.03139 8.56218 353 ft 15 kts 248°
2026-05-06 12:34 50.03105 8.56069 344 ft 14 kts 250°
2026-05-06 12:35 50.03071 8.55926 350 ft 14 kts 249°
2026-05-06 12:35 50.03038 8.55791 346 ft 13 kts 249°
2026-05-06 12:35 50.03006 8.55660 345 ft 13 kts 250°
2026-05-06 12:35 50.02970 8.55507 352 ft 18 kts 249°
2026-05-06 12:36 50.02920 8.55303 348 ft 21 kts 249°
2026-05-06 12:36 50.02870 8.55097 351 ft 20 kts 250°
2026-05-06 12:36 50.02824 8.54900 338 ft 19 kts 249°
2026-05-06 12:36 50.02777 8.54707 336 ft 19 kts 250°
2026-05-06 12:37 50.02732 8.54520 339 ft 18 kts 251°
2026-05-06 12:37 50.02691 8.54338 338 ft 18 kts 250°
2026-05-06 12:37 50.02652 8.54162 335 ft 17 kts 252°
2026-05-06 12:37 50.02616 8.53992 334 ft 16 kts 251°
2026-05-06 12:38 50.02579 8.53829 331 ft 16 kts 250°
2026-05-06 12:38 50.02541 8.53674 335 ft 15 kts 249°
2026-05-06 12:38 50.02505 8.53525 333 ft 14 kts 249°
2026-05-06 12:38 50.02471 8.53382 335 ft 14 kts 250°
2026-05-06 12:39 50.02438 8.53244 332 ft 14 kts 249°
2026-05-06 12:39 50.02407 8.53076 334 ft 18 kts 273°
2026-05-06 12:39 50.02461 8.52892 332 ft 19 kts 313°
2026-05-06 12:39 50.02580 8.52826 331 ft 19 kts 360°
2026-05-06 12:40 50.02707 8.52825 332 ft 18 kts 360°
2026-05-06 12:40 50.02830 8.52824 332 ft 17 kts 360°
2026-05-06 12:40 50.02913 8.52820 331 ft 10 kts 346°
2026-05-06 12:40 50.02942 8.52729 333 ft 10 kts 270°
2026-05-06 12:41 50.02942 8.52623 334 ft 9 kts 268°
2026-05-06 12:41 50.02923 8.52597 333 ft 0 kts 179°
2026-05-06 12:41 50.02921 8.52597 333 ft 5 kts 179°
2026-05-06 12:41 50.02654 8.52600 331 ft 73 kts 179°
2026-05-06 12:42 50.01937 8.52609 333 ft 131 kts 179°
2026-05-06 12:42 50.00902 8.52630 514 ft 162 kts 180°
2026-05-06 12:42 49.99784 8.52665 1269 ft 163 kts 179°
2026-05-06 12:42 49.98639 8.52733 1981 ft 164 kts 180°
2026-05-06 12:43 49.97453 8.52810 2448 ft 184 kts 180°
2026-05-06 12:43 49.96079 8.52896 2674 ft 209 kts 180°
2026-05-06 12:43 49.94580 8.52996 3087 ft 220 kts 180°
2026-05-06 12:43 49.93023 8.53103 3651 ft 227 kts 180°
2026-05-06 12:44 49.91442 8.53216 4456 ft 229 kts 180°
2026-05-06 12:44 49.89857 8.53329 5289 ft 229 kts 180°
2026-05-06 12:44 49.88258 8.53441 6046 ft 232 kts 180°
2026-05-06 12:44 49.86642 8.53554 6746 ft 235 kts 180°
2026-05-06 12:45 49.85001 8.53669 7427 ft 237 kts 180°
2026-05-06 12:45 49.83350 8.53785 8143 ft 238 kts 180°
2026-05-06 12:45 49.79982 8.54020 9513 ft 245 kts 180°
2026-05-06 12:46 49.78273 8.54138 10185 ft 247 kts 181°
2026-05-06 12:46 49.76511 8.54066 10539 ft 263 kts 187°
2026-05-06 12:46 49.74611 8.53806 10730 ft 286 kts 187°
2026-05-06 12:46 49.72553 8.53491 10910 ft 308 kts 187°
2026-05-06 12:47 49.70336 8.53158 11084 ft 330 kts 187°
2026-05-06 12:47 49.67984 8.52817 11260 ft 349 kts 187°
2026-05-06 12:47 49.65526 8.52473 11715 ft 358 kts 186°
2026-05-06 12:47 49.63031 8.52134 12376 ft 361 kts 186°
2026-05-06 12:48 49.60524 8.51799 13109 ft 364 kts 186°
2026-05-06 12:48 49.57987 8.51462 13805 ft 367 kts 186°
2026-05-06 12:48 49.55461 8.51128 14443 ft 370 kts 186°
2026-05-06 12:48 49.52885 8.50788 15098 ft 373 kts 186°
2026-05-06 12:49 49.50282 8.50445 15747 ft 377 kts 186°
2026-05-06 12:49 49.47666 8.50100 16381 ft 380 kts 186°
2026-05-06 12:49 49.45016 8.49750 17007 ft 383 kts 186°
2026-05-06 12:49 49.42348 8.49399 17620 ft 387 kts 185°
2026-05-06 12:50 49.39650 8.49044 18185 ft 391 kts 185°
2026-05-06 12:50 49.36925 8.48686 18724 ft 394 kts 185°
2026-05-06 12:50 49.34192 8.48327 19284 ft 396 kts 185°
2026-05-06 12:50 49.31436 8.47966 19806 ft 399 kts 185°
2026-05-06 12:51 49.28662 8.47606 20311 ft 402 kts 185°
2026-05-06 12:51 49.25866 8.47250 20817 ft 405 kts 185°
2026-05-06 12:51 49.23047 8.46895 21327 ft 407 kts 185°
2026-05-06 12:51 49.20214 8.46539 21842 ft 410 kts 185°
2026-05-06 12:52 49.17370 8.46181 22370 ft 411 kts 185°
2026-05-06 12:52 49.14503 8.45820 22844 ft 414 kts 185°
2026-05-06 12:52 49.11620 8.45457 23298 ft 417 kts 185°
2026-05-06 12:52 49.08724 8.45092 23688 ft 420 kts 185°
2026-05-06 12:53 49.05818 8.44661 24088 ft 421 kts 189°
2026-05-06 12:53 49.02932 8.43771 24468 ft 423 kts 193°
2026-05-06 12:53 49.00065 8.42722 24861 ft 425 kts 194°
2026-05-06 12:53 48.97184 8.41650 25218 ft 427 kts 193°
2026-05-06 12:54 48.94336 8.40607 25569 ft 429 kts 193°
2026-05-06 12:54 48.91427 8.39566 25935 ft 430 kts 193°
2026-05-06 12:54 48.88504 8.38538 26285 ft 432 kts 193°
2026-05-06 12:54 48.85564 8.37514 26622 ft 434 kts 193°
2026-05-06 12:55 48.82615 8.36490 26953 ft 436 kts 193°
2026-05-06 12:55 48.79636 8.35457 27271 ft 438 kts 193°
2026-05-06 12:55 48.76678 8.34415 27779 ft 436 kts 193°
2026-05-06 12:55 48.73739 8.33350 28465 ft 431 kts 193°
2026-05-06 12:56 48.70842 8.32289 28963 ft 428 kts 193°
2026-05-06 12:56 48.67948 8.31228 29393 ft 428 kts 193°
2026-05-06 12:56 48.65055 8.30172 29824 ft 427 kts 193°
2026-05-06 12:56 48.62165 8.29122 30191 ft 426 kts 193°
2026-05-06 12:57 48.59289 8.28079 30563 ft 424 kts 193°
2026-05-06 12:57 48.56429 8.27045 30961 ft 422 kts 194°
2026-05-06 12:57 48.53584 8.26018 31348 ft 420 kts 194°
2026-05-06 12:57 48.50749 8.24995 31717 ft 418 kts 194°
2026-05-06 12:58 48.47921 8.23975 32072 ft 417 kts 194°
2026-05-06 12:58 48.45106 8.22952 32433 ft 415 kts 195°
2026-05-06 12:58 48.42301 8.21929 32783 ft 414 kts 195°
2026-05-06 12:58 48.39504 8.20909 33163 ft 412 kts 195°
2026-05-06 12:59 48.36728 8.19898 33556 ft 410 kts 195°
2026-05-06 12:59 48.33968 8.18895 33964 ft 406 kts 195°
2026-05-06 12:59 48.31223 8.17899 34237 ft 405 kts 195°
2026-05-06 12:59 48.28473 8.16902 34369 ft 408 kts 195°
2026-05-06 13:00 48.25742 8.15890 34502 ft 410 kts 198°
2026-05-06 13:00 48.23061 8.14463 34732 ft 408 kts 206°
2026-05-06 13:00 48.20522 8.12579 34804 ft 410 kts 207°
2026-05-06 13:01 48.15417 8.08741 34811 ft 410 kts 207°
2026-05-06 13:01 48.10326 8.04953 34828 ft 407 kts 207°
2026-05-06 13:02 48.05266 8.01217 34825 ft 405 kts 207°
2026-05-06 13:02 48.00218 7.97505 34829 ft 404 kts 207°
2026-05-06 13:03 47.95171 7.93802 34850 ft 404 kts 207°
2026-05-06 13:03 47.90960 7.90718 34846 ft 407 kts 207°
2026-05-06 13:04 47.85860 7.86992 34829 ft 409 kts 206°
2026-05-06 13:04 47.80762 7.83275 34849 ft 407 kts 206°
2026-05-06 13:05 47.75684 7.79581 34854 ft 405 kts 206°
2026-05-06 13:05 47.70586 7.75937 34866 ft 408 kts 206°
2026-05-06 13:06 47.65481 7.72205 34863 ft 408 kts 206°
2026-05-06 13:06 47.60395 7.68509 34850 ft 405 kts 206°
2026-05-06 13:07 47.55343 7.64861 34879 ft 402 kts 206°
2026-05-06 13:07 47.50326 7.61250 34882 ft 400 kts 206°
2026-05-06 13:08 47.45352 7.57678 34872 ft 398 kts 206°
2026-05-06 13:08 47.40366 7.54105 34873 ft 398 kts 206°
2026-05-06 13:09 47.35372 7.50533 34881 ft 399 kts 206°
2026-05-06 13:09 47.30352 7.46952 34901 ft 402 kts 206°
2026-05-06 13:10 47.25242 7.43312 34887 ft 412 kts 206°
2026-05-06 13:10 47.20061 7.39615 34889 ft 415 kts 208°
2026-05-06 13:11 47.15379 7.34657 34884 ft 417 kts 221°
2026-05-06 13:11 47.11609 7.28156 34890 ft 419 kts 230°
2026-05-06 13:12 47.08054 7.21462 34866 ft 418 kts 230°
2026-05-06 13:12 47.04444 7.14807 34872 ft 416 kts 229°
2026-05-06 13:13 47.00827 7.08211 34899 ft 413 kts 229°
2026-05-06 13:13 46.97234 7.01667 34903 ft 412 kts 229°
2026-05-06 13:14 46.93653 6.95155 34930 ft 410 kts 229°
2026-05-06 13:14 46.89566 6.89396 34918 ft 408 kts 215°
2026-05-06 13:15 46.84662 6.85162 34913 ft 410 kts 210°
2026-05-06 13:15 46.79695 6.81093 34921 ft 413 kts 210°
2026-05-06 13:16 46.74667 6.76951 34904 ft 416 kts 210°
2026-05-06 13:16 46.69631 6.72789 34909 ft 416 kts 210°
2026-05-06 13:17 46.64588 6.68621 34912 ft 417 kts 210°
2026-05-06 13:17 46.59538 6.64455 34920 ft 418 kts 210°
2026-05-06 13:18 46.54472 6.60286 34898 ft 419 kts 210°
2026-05-06 13:18 46.49409 6.56128 34892 ft 417 kts 210°
2026-05-06 13:19 46.44382 6.52010 34902 ft 413 kts 210°
2026-05-06 13:19 46.39401 6.47936 34907 ft 410 kts 210°
2026-05-06 13:20 46.34480 6.43921 34921 ft 407 kts 210°
2026-05-06 13:20 46.29549 6.39906 34942 ft 408 kts 210°
2026-05-06 13:21 46.24543 6.35838 34939 ft 417 kts 210°
2026-05-06 13:21 46.19447 6.31706 34939 ft 421 kts 210°
2026-05-06 13:22 46.14327 6.27564 34934 ft 422 kts 210°
2026-05-06 13:22 46.09208 6.23431 34929 ft 421 kts 210°
2026-05-06 13:23 46.04101 6.19316 34940 ft 419 kts 210°
2026-05-06 13:23 45.99020 6.15231 34919 ft 417 kts 210°
2026-05-06 13:24 45.94042 6.11236 34934 ft 410 kts 210°
2026-05-06 13:24 45.89059 6.07246 34934 ft 410 kts 210°
2026-05-06 13:25 45.83810 6.04081 34946 ft 412 kts 197°
2026-05-06 13:25 45.78131 6.02704 34931 ft 415 kts 191°
2026-05-06 13:26 45.72425 6.01504 34939 ft 415 kts 191°
2026-05-06 13:26 45.66711 6.00265 34933 ft 415 kts 191°
2026-05-06 13:27 45.61005 5.99013 34920 ft 415 kts 192°
2026-05-06 13:27 45.55293 5.97760 34939 ft 415 kts 192°
2026-05-06 13:28 45.49615 5.96519 34936 ft 415 kts 192°
2026-05-06 13:28 45.43945 5.95032 34938 ft 413 kts 195°
2026-05-06 13:29 45.38342 5.93247 34931 ft 412 kts 195°
2026-05-06 13:29 45.32738 5.91451 34932 ft 412 kts 195°
2026-05-06 13:30 45.27143 5.89691 34925 ft 412 kts 195°
2026-05-06 13:30 45.21541 5.87946 34926 ft 412 kts 195°
2026-05-06 13:31 45.15944 5.86211 34922 ft 412 kts 195°
2026-05-06 13:31 45.10338 5.84478 34924 ft 412 kts 195°
2026-05-06 13:32 45.04770 5.82758 34917 ft 413 kts 195°
2026-05-06 13:32 44.99167 5.81035 34915 ft 411 kts 195°
2026-05-06 13:33 44.93559 5.79309 34915 ft 411 kts 195°
2026-05-06 13:33 44.87999 5.77601 34913 ft 411 kts 195°
2026-05-06 13:34 44.82411 5.75889 34901 ft 410 kts 196°
2026-05-06 13:34 44.76841 5.74187 34901 ft 409 kts 196°
2026-05-06 13:35 44.71294 5.72494 34903 ft 407 kts 196°
2026-05-06 13:35 44.65755 5.70806 34931 ft 408 kts 195°
2026-05-06 13:36 44.60201 5.69117 34904 ft 409 kts 195°
2026-05-06 13:36 44.54664 5.67437 34914 ft 410 kts 195°
2026-05-06 13:37 44.49068 5.65743 34906 ft 412 kts 195°
2026-05-06 13:37 44.43452 5.64045 34909 ft 413 kts 196°
2026-05-06 13:38 44.37834 5.62289 34911 ft 413 kts 200°
2026-05-06 13:38 44.32480 5.59433 34901 ft 412 kts 205°
2026-05-06 13:39 44.27167 5.56464 34884 ft 411 kts 205°
2026-05-06 13:39 44.21850 5.53531 34890 ft 411 kts 205°
2026-05-06 13:40 44.16574 5.50643 34897 ft 409 kts 205°
2026-05-06 13:40 44.11281 5.47752 34906 ft 408 kts 205°
2026-05-06 13:41 44.06000 5.44872 34892 ft 407 kts 205°
2026-05-06 13:41 44.00744 5.42010 34890 ft 405 kts 205°
2026-05-06 13:42 43.95503 5.39166 34898 ft 404 kts 205°
2026-05-06 13:42 43.90264 5.36338 34872 ft 403 kts 205°
2026-05-06 13:43 43.85046 5.33527 34891 ft 401 kts 205°
2026-05-06 13:43 43.79840 5.30724 34905 ft 401 kts 205°
2026-05-06 13:44 43.74642 5.27931 34907 ft 401 kts 205°
2026-05-06 13:44 43.69436 5.25138 34904 ft 401 kts 205°
2026-05-06 13:45 43.64265 5.22369 34904 ft 401 kts 205°
2026-05-06 13:45 43.56447 5.18193 34937 ft 402 kts 205°
2026-05-06 13:46 43.51234 5.15415 34927 ft 402 kts 205°
2026-05-06 13:46 43.46018 5.12639 34930 ft 402 kts 205°
2026-05-06 13:47 43.40812 5.09875 34940 ft 401 kts 205°
2026-05-06 13:47 43.35944 5.06288 34938 ft 395 kts 217°
2026-05-06 13:48 43.31430 5.01960 34904 ft 395 kts 217°
2026-05-06 13:48 43.26909 4.97680 34923 ft 394 kts 217°
2026-05-06 13:49 43.22385 4.93423 34933 ft 395 kts 217°
2026-05-06 13:49 43.17854 4.89170 34932 ft 395 kts 217°
2026-05-06 13:50 43.13315 4.84915 34934 ft 396 kts 217°
2026-05-06 13:50 43.08802 4.80692 34923 ft 396 kts 217°
2026-05-06 13:51 43.04195 4.76566 34931 ft 397 kts 212°
2026-05-06 13:51 42.99352 4.72897 34934 ft 398 kts 212°
2026-05-06 13:52 42.94494 4.69259 34941 ft 398 kts 212°
2026-05-06 13:52 42.89642 4.65611 34930 ft 398 kts 212°
2026-05-06 13:53 42.84800 4.61961 34939 ft 398 kts 212°
2026-05-06 13:53 42.79961 4.58315 34937 ft 397 kts 212°
2026-05-06 13:54 42.75124 4.54676 34953 ft 398 kts 212°
2026-05-06 13:54 42.70278 4.51037 34945 ft 398 kts 212°
2026-05-06 13:55 42.65454 4.47422 34948 ft 398 kts 212°
2026-05-06 13:55 42.60599 4.43789 34951 ft 398 kts 212°
2026-05-06 13:56 42.55738 4.40159 34950 ft 399 kts 212°
2026-05-06 13:56 42.50879 4.36536 34939 ft 398 kts 212°
2026-05-06 13:57 42.46019 4.32920 34947 ft 398 kts 212°
2026-05-06 13:57 42.41196 4.29337 34954 ft 398 kts 212°
2026-05-06 13:58 42.36343 4.25738 34954 ft 398 kts 212°
2026-05-06 13:58 42.31491 4.22147 34938 ft 397 kts 212°
2026-05-06 13:59 42.26648 4.18568 34967 ft 397 kts 212°
2026-05-06 13:59 42.22623 4.15596 34951 ft 397 kts 212°
2026-05-06 14:00 42.17772 4.12023 34964 ft 397 kts 212°
2026-05-06 14:00 42.12921 4.08454 34960 ft 397 kts 212°
2026-05-06 14:01 42.08078 4.04892 34951 ft 397 kts 212°
2026-05-06 14:01 42.03227 4.01330 34958 ft 397 kts 212°
2026-05-06 14:02 41.98378 3.97774 34959 ft 397 kts 212°
2026-05-06 14:02 41.93512 3.94340 34953 ft 400 kts 207°
2026-05-06 14:03 41.88117 3.92313 34963 ft 407 kts 195°
2026-05-06 14:03 41.82526 3.91066 34955 ft 407 kts 195°
2026-05-06 14:04 41.76934 3.89793 34959 ft 407 kts 195°
2026-05-06 14:04 41.71350 3.88497 34959 ft 407 kts 195°
2026-05-06 14:05 41.65767 3.87199 34953 ft 407 kts 196°
2026-05-06 14:05 41.60229 3.85915 34959 ft 407 kts 195°
2026-05-06 14:06 41.54650 3.84637 34958 ft 406 kts 195°
2026-05-06 14:06 41.49075 3.83367 34925 ft 406 kts 195°
2026-05-06 14:07 41.43511 3.82100 34949 ft 405 kts 195°
2026-05-06 14:07 41.37948 3.80834 34964 ft 405 kts 196°
2026-05-06 14:08 41.32420 3.79578 34960 ft 406 kts 196°
2026-05-06 14:08 41.26844 3.78313 34935 ft 406 kts 196°
2026-05-06 14:09 41.21265 3.77049 34949 ft 407 kts 196°
2026-05-06 14:09 41.15683 3.75787 34954 ft 407 kts 196°
2026-05-06 14:10 41.10096 3.74525 34957 ft 407 kts 196°
2026-05-06 14:10 41.04507 3.73263 34944 ft 407 kts 196°
2026-05-06 14:11 40.98918 3.72003 34954 ft 407 kts 196°
2026-05-06 14:11 40.93330 3.70745 34952 ft 408 kts 196°
2026-05-06 14:12 40.87775 3.69496 34954 ft 408 kts 196°
2026-05-06 14:12 40.82181 3.68241 34942 ft 407 kts 196°
2026-05-06 14:13 40.76588 3.66988 34946 ft 407 kts 196°
2026-05-06 14:13 40.70998 3.65738 34951 ft 407 kts 196°
2026-05-06 14:14 40.65411 3.64491 34954 ft 407 kts 196°
2026-05-06 14:14 40.59822 3.63245 34954 ft 407 kts 196°
2026-05-06 14:15 40.54229 3.62001 34950 ft 407 kts 196°
2026-05-06 14:15 40.48646 3.60761 34951 ft 407 kts 196°
2026-05-06 14:16 40.43063 3.59523 34951 ft 407 kts 196°
2026-05-06 14:16 40.37478 3.58287 34945 ft 406 kts 196°
2026-05-06 14:17 40.31938 3.57062 34949 ft 406 kts 196°
2026-05-06 14:17 40.26356 3.55830 34951 ft 407 kts 196°
2026-05-06 14:18 40.20768 3.54599 34954 ft 407 kts 196°
2026-05-06 14:18 40.15178 3.53369 34939 ft 407 kts 195°
2026-05-06 14:19 40.09579 3.52140 34954 ft 408 kts 195°
2026-05-06 14:19 40.03971 3.50905 34945 ft 409 kts 195°
2026-05-06 14:20 39.98347 3.49664 34947 ft 410 kts 195°
2026-05-06 14:20 39.92714 3.48423 34940 ft 411 kts 195°
2026-05-06 14:21 39.87071 3.47183 34950 ft 412 kts 195°
2026-05-06 14:21 39.81415 3.45942 34947 ft 413 kts 195°
2026-05-06 14:22 39.75747 3.44701 34950 ft 413 kts 195°
2026-05-06 14:22 39.70113 3.43469 34934 ft 413 kts 195°
2026-05-06 14:23 39.64426 3.42271 34933 ft 414 kts 195°
2026-05-06 14:23 39.58718 3.41102 34939 ft 415 kts 195°
2026-05-06 14:24 39.53015 3.39933 34943 ft 415 kts 195°
2026-05-06 14:24 39.47314 3.38762 34936 ft 414 kts 195°
2026-05-06 14:25 39.41657 3.37599 34941 ft 414 kts 195°
2026-05-06 14:25 39.35967 3.36431 34939 ft 414 kts 195°
2026-05-06 14:26 39.30273 3.35264 34914 ft 414 kts 195°
2026-05-06 14:26 39.24588 3.34102 34930 ft 413 kts 195°
2026-05-06 14:27 39.18906 3.32941 34940 ft 413 kts 195°
2026-05-06 14:27 39.13230 3.31784 34937 ft 413 kts 195°
2026-05-06 14:28 39.07553 3.30628 34915 ft 413 kts 195°
2026-05-06 14:28 39.01873 3.29474 34929 ft 413 kts 195°
2026-05-06 14:29 38.96202 3.28317 34935 ft 413 kts 195°
2026-05-06 14:29 38.90567 3.27166 34931 ft 413 kts 195°
2026-05-06 14:30 38.84892 3.26009 34931 ft 413 kts 195°
2026-05-06 14:30 38.79219 3.24856 34923 ft 413 kts 195°
2026-05-06 14:31 38.73544 3.23703 34931 ft 413 kts 195°
2026-05-06 14:31 38.67855 3.22550 34930 ft 413 kts 195°
2026-05-06 14:32 38.62161 3.21396 34641 ft 419 kts 195°
2026-05-06 14:32 38.59272 3.20809 34106 ft 419 kts 195°
2026-05-06 14:32 38.56393 3.20229 33431 ft 418 kts 195°
2026-05-06 14:33 38.53539 3.19656 32992 ft 412 kts 195°
2026-05-06 14:33 38.50718 3.19090 32486 ft 408 kts 195°
2026-05-06 14:33 38.47931 3.18530 32040 ft 403 kts 195°
2026-05-06 14:33 38.45208 3.17982 31587 ft 399 kts 195°
2026-05-06 14:34 38.42474 3.17432 31140 ft 395 kts 195°
2026-05-06 14:34 38.39775 3.16888 30704 ft 391 kts 195°
2026-05-06 14:34 38.37101 3.16349 30274 ft 387 kts 195°
2026-05-06 14:34 38.34448 3.15816 29820 ft 384 kts 194°
2026-05-06 14:35 38.31824 3.15289 29338 ft 380 kts 194°
2026-05-06 14:35 38.29218 3.14824 28901 ft 378 kts 191°
2026-05-06 14:35 38.26585 3.14776 28475 ft 377 kts 185°
2026-05-06 14:35 38.23971 3.14850 28014 ft 374 kts 185°
2026-05-06 14:36 38.21385 3.14921 27589 ft 370 kts 185°
2026-05-06 14:36 38.18817 3.14977 27154 ft 367 kts 186°
2026-05-06 14:36 38.16275 3.15022 26726 ft 364 kts 186°
2026-05-06 14:36 38.13756 3.15064 26284 ft 361 kts 186°
2026-05-06 14:37 38.11253 3.15216 25890 ft 362 kts 179°
2026-05-06 14:37 38.08768 3.15874 25490 ft 367 kts 172°
2026-05-06 14:37 38.06309 3.16723 25084 ft 366 kts 172°
2026-05-06 14:37 38.03856 3.17589 24680 ft 368 kts 171°
2026-05-06 14:38 38.01353 3.18467 24268 ft 378 kts 171°
2026-05-06 14:38 37.98837 3.19345 23830 ft 380 kts 171°
2026-05-06 14:38 37.96289 3.20232 23383 ft 378 kts 171°
2026-05-06 14:38 37.93761 3.21108 22885 ft 375 kts 171°
2026-05-06 14:39 37.91255 3.21973 22437 ft 372 kts 171°
2026-05-06 14:39 37.88773 3.22827 22021 ft 367 kts 171°
2026-05-06 14:39 37.86319 3.23669 21596 ft 364 kts 171°
2026-05-06 14:39 37.83886 3.24501 21179 ft 361 kts 171°
2026-05-06 14:40 37.81470 3.25326 20764 ft 358 kts 171°
2026-05-06 14:40 37.79077 3.26142 20355 ft 355 kts 171°
2026-05-06 14:40 37.76699 3.26952 19962 ft 353 kts 170°
2026-05-06 14:40 37.74334 3.27757 19560 ft 351 kts 170°
2026-05-06 14:41 37.71981 3.28558 19164 ft 349 kts 170°
2026-05-06 14:41 37.69643 3.29353 18770 ft 347 kts 170°
2026-05-06 14:41 37.67308 3.30146 18364 ft 346 kts 170°
2026-05-06 14:41 37.64984 3.30935 17908 ft 345 kts 170°
2026-05-06 14:42 37.62702 3.31710 17485 ft 343 kts 169°
2026-05-06 14:42 37.60402 3.32491 17073 ft 341 kts 169°
2026-05-06 14:42 37.58118 3.33265 16676 ft 338 kts 169°
2026-05-06 14:42 37.55850 3.34034 16284 ft 336 kts 169°
2026-05-06 14:43 37.53599 3.34797 15895 ft 334 kts 169°
2026-05-06 14:43 37.51357 3.35556 15509 ft 332 kts 169°
2026-05-06 14:43 37.49130 3.36309 15128 ft 330 kts 169°
2026-05-06 14:43 37.46917 3.37057 14745 ft 329 kts 168°
2026-05-06 14:44 37.44709 3.37803 14365 ft 327 kts 168°
2026-05-06 14:44 37.42517 3.38543 13983 ft 326 kts 168°
2026-05-06 14:44 37.40329 3.39281 13603 ft 325 kts 167°
2026-05-06 14:45 37.35983 3.40747 12785 ft 322 kts 167°
2026-05-06 14:45 37.33825 3.41474 12399 ft 320 kts 167°
2026-05-06 14:45 37.31708 3.42187 12028 ft 318 kts 167°
2026-05-06 14:45 37.29577 3.42904 11647 ft 317 kts 167°
2026-05-06 14:46 37.27453 3.43618 11286 ft 315 kts 167°
2026-05-06 14:46 37.25339 3.44329 10917 ft 314 kts 167°
2026-05-06 14:46 37.23232 3.45037 10548 ft 313 kts 167°
2026-05-06 14:46 37.21150 3.45737 10383 ft 305 kts 167°
2026-05-06 14:47 37.19125 3.46417 10233 ft 297 kts 167°
2026-05-06 14:47 37.17155 3.47078 10091 ft 289 kts 168°
2026-05-06 14:47 37.15241 3.47720 9966 ft 281 kts 168°
2026-05-06 14:47 37.13369 3.48312 9792 ft 275 kts 170°
2026-05-06 14:48 37.11491 3.48813 9460 ft 275 kts 171°
2026-05-06 14:48 37.09618 3.49289 9169 ft 274 kts 171°
2026-05-06 14:48 37.07752 3.49763 8882 ft 273 kts 171°
2026-05-06 14:48 37.05896 3.50237 8603 ft 272 kts 171°
2026-05-06 14:49 37.04048 3.50712 8322 ft 270 kts 171°
2026-05-06 14:49 37.02212 3.51187 8046 ft 269 kts 171°
2026-05-06 14:49 37.00379 3.51662 7771 ft 268 kts 171°
2026-05-06 14:49 36.98560 3.52134 7549 ft 265 kts 171°
2026-05-06 14:50 36.96759 3.52602 7285 ft 264 kts 171°
2026-05-06 14:50 36.94963 3.53069 7024 ft 263 kts 171°
2026-05-06 14:50 36.93159 3.53342 6584 ft 262 kts 190°
2026-05-06 14:50 36.91539 3.52434 6077 ft 256 kts 223°
2026-05-06 14:51 36.90245 3.50914 5652 ft 254 kts 225°
2026-05-06 14:51 36.88970 3.49425 5391 ft 245 kts 225°
2026-05-06 14:51 36.87729 3.48011 5127 ft 239 kts 223°
2026-05-06 14:51 36.86515 3.46650 4891 ft 231 kts 225°
2026-05-06 14:52 36.85340 3.45351 4591 ft 227 kts 223°
2026-05-06 14:52 36.84167 3.44068 4374 ft 218 kts 224°
2026-05-06 14:52 36.83063 3.42869 4272 ft 202 kts 223°
2026-05-06 14:52 36.82015 3.41734 3959 ft 198 kts 223°
2026-05-06 14:53 36.80989 3.40563 3556 ft 202 kts 225°
2026-05-06 14:53 36.80006 3.39343 3239 ft 199 kts 229°
2026-05-06 14:53 36.79115 3.38049 2930 ft 195 kts 232°
2026-05-06 14:53 36.78301 3.36710 2564 ft 192 kts 236°
2026-05-06 14:54 36.77517 3.35394 2234 ft 187 kts 233°
2026-05-06 14:54 36.76767 3.34173 2003 ft 173 kts 233°
2026-05-06 14:54 36.76301 3.33379 1781 ft 169 kts 235°
2026-05-06 14:54 36.75607 3.32235 1480 ft 164 kts 233°
2026-05-06 14:55 36.74914 3.31123 1289 ft 160 kts 232°
2026-05-06 14:55 36.74235 3.30014 1095 ft 161 kts 235°
2026-05-06 14:55 36.73574 3.28909 828 ft 158 kts 235°
2026-05-06 14:55 36.72907 3.27808 631 ft 160 kts 234°
2026-05-06 14:56 36.72238 3.26708 422 ft 159 kts 235°
2026-05-06 14:56 36.71560 3.25592 224 ft 164 kts 234°
2026-05-06 14:56 36.70877 3.24464 92 ft 158 kts 233°
2026-05-06 14:56 36.70263 3.23457 75 ft 134 kts 233°
2026-05-06 14:57 36.69773 3.22652 70 ft 100 kts 233°
2026-05-06 14:57 36.69455 3.22132 77 ft 31 kts 233°
2026-05-06 14:57 36.69379 3.21938 66 ft 25 kts 266°
2026-05-06 14:57 36.69382 3.21726 69 ft 23 kts 271°
2026-05-06 14:58 36.69385 3.21537 69 ft 21 kts 271°
2026-05-06 14:58 36.69386 3.21360 69 ft 20 kts 269°
2026-05-06 14:58 36.69385 3.21203 69 ft 16 kts 270°
2026-05-06 14:58 36.69384 3.21068 69 ft 15 kts 270°
2026-05-06 14:59 36.69385 3.20939 69 ft 15 kts 271°
2026-05-06 14:59 36.69450 3.20858 66 ft 14 kts 339°
2026-05-06 14:59 36.69539 3.20818 61 ft 13 kts 340°
2026-05-06 14:59 36.69596 3.20741 64 ft 13 kts 278°
2026-05-06 15:00 36.69600 3.20631 69 ft 13 kts 272°
2026-05-06 15:00 36.69658 3.20583 69 ft 12 kts 12°
2026-05-06 15:00 36.69679 3.20593 69 ft 0 kts 21°